Location: Castiglione Fibocchi
(43.5333°N, 11.7667°E)
Time: 18:04:15
(UTC+00:00)

ERS-2 - Pass Details

Date: 15 August 2020
Orbit: 494 x 498 km, 98.6° (Epoch: 18 September)

Event Time Altitude Azimuth Distance (km) Brightness Sun altitude
Rises 02:16:11 0° 139° (SE) 2,569 5.7 -19.5°
Reaches altitude 10° 02:18:26 10° 127° (SE) 1,692 4.9 -19.2°
Maximum altitude 02:21:33 27° 68° (ENE) 977 4.3 -18.8°
Drops below altitude 10° 02:24:41 10° 9° (N) 1,707 5.5 -18.4°
Sets 02:26:58 0° 358° (N) 2,596 6.3 -18.1°
